Theta_e
318 317 316 322 328 331 330 336 345 344 342 342 340 339 346 346 345 341 339 336 331 330 329 323 325 327 326 325 324 323 318 314 310 310 311 312 309 307 313 310 311 308 310
317 316 316 317 319 324 328 332 334 336 346 346 346 345 344 347 346 341 336 336 331 329 327 326 324 328 325 324 324 321 320 315 310 308 309 310 307 307 308 308 309 309 305
315 315 315 316 316 317 321 328 334 334 335 341 342 344 344 344 345 342 339 335 333 330 330 328 326 326 325 324 321 319 318 315 313 310 306 311 306 306 305 306 307 306 311
314 313 314 315 317 317 319 320 327 329 330 332 337 342 342 343 344 343 340 337 334 331 330 330 329 326 326 324 322 319 320 314 312 310 309 308 308 307 306 306 304 306 308
312 312 312 315 318 318 318 319 323 325 326 328 331 334 338 340 342 342 343 338 335 332 332 331 330 328 328 326 322 320 318 315 311 309 307 307 306 306 306 307 305 307 306
311 312 313 314 316 315 317 318 320 320 321 322 325 330 332 337 327 320 331 341 337 333 331 330 330 327 326 322 321 319 318 315 311 309 308 307 307 307 306 306 305 303 301
314 315 315 315 315 315 316 316 318 318 318 320 323 326 327 331 320 317 316 335 339 334 333 331 329 329 325 324 319 316 316 315 314 312 309 308 307 308 307 306 306 304 303
313 314 314 314 315 314 315 316 316 317 317 318 320 322 324 329 316 313 314 324 335 336 334 331 329 327 325 323 320 317 316 316 313 313 312 310 309 310 308 307 306 306 306
313 312 313 314 313 313 312 312 317 318 316 316 319 321 323 323 313 310 313 325 327 334 334 331 328 326 317 312 319 315 315 314 310 309 309 306 305 305 308 309 306 304 300
313 314 315 314 313 312 312 312 314 318 317 317 317 318 318 321 313 309 312 324 327 330 333 331 319 324 308 308 319 316 312 307 307 305 306 305 307 307 310 310 307 303 301
315 316 315 314 313 313 312 312 314 314 316 314 315 317 318 319 319 309 307 320 326 329 331 330 326 312 307 307 313 315 312 306 307 306 307 307 308 308 309 310 309 304 303
315 315 314 314 315 315 313 313 313 314 314 313 313 316 318 317 312 311 307 305 317 325 329 329 324 306 303 305 310 308 302 306 306 306 305 305 305 305 307 309 309 309 309
313 313 314 314 314 314 313 312 312 312 312 312 312 313 314 315 315 309 306 304 303 310 322 322 308 302 301 303 307 302 303 306 305 304 304 305 305 306 308 307 305 309 307
310 311 312 312 312 314 314 313 312 311 311 311 311 312 313 311 312 314 315 317 307 306 311 315 316 310 306 308 302 303 305 306 305 304 304 305 306 306 305 305 302 306 305
311 311 312 313 312 312 312 312 312 313 311 311 311 312 311 309 309 305 302 306 310 311 305 306 305 304 304 303 304 304 305 304 303 304 303 304 304 304 304 303 303 304 302
308 310 311 311 312 311 311 311 307 302 299 297 296 300 310 302 299 298 296 295 295 298 305 304 303 303 302 302 301 302 302 302 302 302 303 304 303 303 303 302 302 301 301
306 309 309 308 308 307 307 307 306 308 305 298 295 295 293 295 293 293 293 293 293 296 306 304 303 304 302 301 301 300 300 301 302 302 304 304 302 302 302 302 303 304 303
308 304 306 306 306 305 305 304 305 305 304 306 305 298 297 295 292 292 292 293 295 300 305 302 302 303 303 302 301 300 300 302 302 302 303 302 302 303 304 304 304 303 302
307 306 306 306 306 304 304 302 301 301 301 301 302 301 298 295 292 292 292 298 301 301 304 302 302 302 302 303 302 301 302 302 302 302 302 302 302 304 303 304 304 296 297
307 302 301 306 306 304 303 301 299 298 298 298 297 297 298 294 295 297 298 299 303 303 302 301 301 302 302 302 301 303 303 301 302 302 301 303 302 303 303 304 303 301 299
307 305 295 305 304 303 302 300 299 298 297 298 298 298 290 291 296 298 298 302 302 303 301 301 301 301 302 302 303 303 302 301 301 302 302 303 304 304 305 304 303 302 300
303 304 304 303 303 302 301 302 300 299 298 298 298 298 292 300 301 302 301 301 302 301 301 301 301 302 303 303 303 303 302 301 302 302 302 304 305 305 304 303 303 302 301
302 301 302 303 303 298 301 302 301 299 298 298 299 299 299 300 301 301 300 300 300 300 301 301 302 302 304 304 304 303 301 301 303 304 304 305 305 304 304 303 303 302 301
303 301 300 300 301 301 301 300 301 297 298 298 298 298 299 299 301 302 301 301 301 301 301 302 302 301 302 302 303 303 303 304 305 306 306 306 304 300 304 303 303 303 302
302 302 302 302 302 301 301 300 300 300 299 299 299 299 300 301 301 302 303 302 301 301 301 302 302 301 301 302 303 304 297 293 303 298 305 305 304 303 303 303 303 302 302
299 298 299 301 300 300 301 300 300 300 300 300 299 299 300 301 302 302 303 303 301 302 302 303 302 301 302 303 304 294 291 291 295 290 304 306 305 303 303 302 303 301 301
Wind_Speed
7 7 8 6 8 9 6 5 7 13 14 14 11 13 15 18 17 15 16 13 15 16 15 15 17 15 11 9 8 9 8 6 7 3 3 11 10 13 12 9 11 8 8
5 4 5 8 7 7 11 12 7 8 10 12 13 14 13 16 17 18 19 17 17 19 17 16 18 11 13 9 10 13 11 7 6 8 5 7 7 12 12 11 9 8 8
8 7 7 7 7 8 8 8 11 9 11 13 12 13 15 16 16 19 20 20 19 20 21 20 20 18 18 15 10 9 7 6 9 7 5 8 3 9 7 5 8 5 7
6 7 8 8 8 8 8 8 7 7 7 10 12 13 13 16 14 18 19 20 19 19 21 21 21 22 22 20 15 11 8 9 9 10 10 11 9 7 7 9 5 3 4
7 7 9 8 8 8 8 8 8 7 7 8 13 15 14 12 12 17 19 20 21 22 19 20 19 23 27 23 13 14 13 11 11 11 10 9 9 9 13 8 7 5 5
9 8 8 9 8 8 11 9 8 7 7 7 11 12 15 11 16 19 19 19 21 21 22 21 21 25 25 26 24 21 21 18 15 12 11 14 14 11 10 10 8 4 4
14 13 13 14 16 14 9 9 8 8 7 8 9 11 14 15 15 18 20 18 19 20 23 20 19 17 22 21 23 24 23 25 26 20 20 20 18 18 16 13 11 6 5
13 12 13 14 13 13 15 15 8 7 8 8 8 10 12 12 14 17 19 16 19 20 24 23 24 23 22 23 20 20 20 20 21 17 21 19 16 17 16 13 9 4 4
15 15 14 13 14 14 15 15 13 10 9 7 7 10 13 14 16 18 17 12 15 20 22 24 25 25 26 27 23 21 17 15 9 16 17 19 19 18 14 11 8 8 3
15 15 13 13 14 14 14 15 15 8 10 7 10 11 15 14 15 18 16 11 14 14 19 24 27 25 24 32 26 21 19 14 14 11 11 14 19 17 20 14 9 10 4
16 15 14 14 14 14 14 12 13 13 9 9 12 13 14 12 13 16 18 12 11 12 14 15 19 27 28 34 33 23 22 16 17 15 14 13 14 15 13 9 10 6 4
15 16 14 13 12 12 15 14 14 13 11 10 11 12 10 10 11 13 16 18 18 14 14 9 13 24 24 29 27 25 26 22 14 13 13 12 13 13 11 8 7 6 4
15 15 13 14 14 14 14 14 12 13 10 10 9 10 11 8 8 12 15 15 19 14 10 9 14 23 25 24 23 30 28 14 12 11 12 12 12 12 14 9 7 7 6
15 15 14 13 14 13 10 9 8 10 9 10 9 11 10 8 9 9 10 9 10 9 9 6 15 23 27 20 18 20 14 14 18 18 15 11 11 12 10 11 5 6 5
14 15 12 11 12 12 11 9 10 11 9 10 11 10 8 9 10 9 9 11 11 7 5 6 8 11 11 9 12 18 15 14 13 13 11 12 13 12 10 7 8 5 6
13 12 10 9 9 9 10 10 12 15 17 15 14 12 7 10 16 18 19 19 15 15 4 9 9 14 17 17 14 9 13 17 13 13 13 12 12 12 11 9 8 9 9
12 12 10 10 10 11 12 12 13 12 13 13 15 11 10 17 16 18 21 22 11 15 6 8 10 14 14 16 17 16 13 14 17 14 13 13 13 12 11 10 10 10 8
13 11 9 9 9 10 11 12 12 12 13 11 9 7 9 13 14 18 19 10 2 12 8 10 11 12 14 15 15 15 13 14 14 16 15 14 13 14 13 13 11 11 9
11 10 11 8 8 10 10 10 11 13 12 12 12 10 9 11 16 17 12 6 5 9 7 10 10 11 11 11 12 13 17 17 16 15 13 15 15 13 14 12 13 10 7
10 13 10 9 8 9 10 11 11 11 11 10 10 11 11 10 9 9 6 5 3 5 5 9 10 10 11 12 12 14 14 16 16 15 14 13 15 14 11 13 11 10 5
8 9 10 9 8 9 8 10 11 11 11 10 10 10 13 7 9 8 6 4 2 3 6 7 9 10 11 13 13 13 15 17 17 17 16 14 13 10 11 11 11 9 6
5 8 9 9 9 10 9 8 9 11 11 11 11 10 14 8 7 6 5 5 5 5 6 7 8 10 11 13 15 15 16 17 16 16 17 13 9 12 11 10 11 9 8
4 6 8 9 9 10 9 9 9 10 11 11 12 11 11 9 7 5 6 5 5 6 6 6 7 7 8 9 11 13 16 16 17 15 14 7 12 12 11 10 10 10 9
5 5 6 7 10 9 9 10 10 11 10 11 10 11 11 10 9 9 6 6 6 5 5 5 6 9 11 11 10 11 13 14 14 12 9 10 14 9 10 10 9 10 9
6 8 9 10 8 9 9 9 9 10 11 11 12 10 10 11 10 7 6 5 5 5 7 6 7 13 15 18 16 16 13 12 12 7 6 10 6 9 7 7 8 5 7
10 10 10 9 10 11 8 7 8 9 10 10 10 11 11 10 9 8 9 8 5 5 7 6 11 16 18 15 12 9 12 9 8 9 3 8 9 7 6 6 8 6 9
Wind_Direction
21 2 352 347 335 337 339 338 288 257 238 239 230 238 227 217 212 210 228 225 216 210 207 201 206 211 209 193 205 202 174 154 165 245 140 158 159 158 167 172 171 168 182
337 346 324 326 334 331 330 326 324 330 290 249 241 243 240 224 214 206 204 207 214 214 209 209 211 196 206 213 205 205 196 166 136 163 162 158 155 170 161 158 170 181 187
327 326 321 306 303 305 306 308 312 321 322 320 285 258 249 243 218 213 210 211 215 211 206 205 205 200 201 209 205 186 196 163 149 146 148 165 128 162 159 159 172 185 188
321 332 313 295 284 276 282 297 296 294 302 312 312 301 281 261 243 221 216 214 214 219 214 211 209 203 200 205 208 187 180 159 150 149 154 162 160 167 161 169 184 186 181
302 294 280 280 277 278 276 270 280 297 307 309 311 306 300 285 262 236 224 220 211 215 212 213 210 208 200 201 194 187 167 166 157 155 155 162 172 174 179 176 180 185 206
309 291 286 280 275 278 273 262 257 270 283 292 298 298 298 292 285 264 241 225 217 212 211 208 207 208 202 195 195 186 175 172 166 157 163 175 182 180 178 180 180 156 193
316 307 313 316 312 293 267 264 251 252 257 272 277 287 291 289 282 279 258 247 236 215 210 207 205 206 198 195 194 177 186 187 172 168 174 187 177 178 169 177 188 178 156
307 307 309 306 300 314 316 306 266 245 247 254 273 281 286 286 289 289 275 253 246 230 215 204 200 201 194 190 186 186 187 193 181 178 180 175 176 172 175 168 170 164 96
308 302 302 300 301 299 300 299 305 287 272 258 261 273 281 283 284 284 285 275 253 240 222 208 199 196 189 179 183 185 184 195 185 163 161 157 149 156 158 141 160 154 165
305 301 298 301 297 292 289 292 288 275 288 268 270 272 272 275 280 282 280 273 256 247 229 217 205 199 181 171 181 182 181 180 156 131 137 130 145 148 141 150 168 175 159
306 299 294 291 285 285 282 284 283 279 262 271 280 276 273 267 277 282 281 272 261 253 242 238 189 192 182 179 180 180 183 157 159 147 152 148 150 151 147 155 162 151 156
312 302 292 291 287 287 285 282 280 277 268 275 280 279 269 269 267 286 291 248 251 254 255 228 202 164 184 186 180 180 149 158 152 145 150 156 159 156 154 144 150 146 167
318 310 301 295 293 291 286 281 282 283 276 276 276 279 278 279 289 290 297 281 253 257 261 251 168 154 171 188 180 144 144 151 139 132 160 178 163 149 141 169 163 128 120
315 311 307 303 297 293 281 275 277 276 270 276 274 279 277 283 292 295 304 320 282 268 244 246 228 191 169 163 137 141 152 161 157 162 177 171 147 141 160 184 138 131 131
319 324 317 309 305 305 296 285 277 269 249 276 272 266 261 281 280 285 296 302 295 275 138 110 137 123 132 153 163 160 161 162 169 170 163 166 147 147 167 173 158 139 162
327 324 324 323 330 325 319 313 296 270 283 282 264 258 273 257 285 290 294 290 282 185 185 160 167 156 157 158 160 185 161 156 165 161 166 161 149 148 161 163 177 191 196
328 322 339 334 338 340 331 326 317 316 295 283 271 265 256 262 285 291 292 288 266 189 180 175 184 174 170 165 164 166 169 165 156 160 162 159 149 151 156 170 188 188 194
334 329 341 338 340 334 334 331 325 328 325 324 324 287 286 290 296 294 292 294 160 210 178 173 180 181 175 171 174 163 156 159 163 159 154 155 154 148 164 181 192 199 191
340 338 336 332 337 335 335 336 337 331 331 330 328 324 325 301 292 285 296 245 204 206 179 170 172 172 169 172 163 157 163 153 157 151 152 150 150 158 172 191 190 186 178
337 335 333 333 333 336 344 344 343 339 333 329 325 321 318 320 314 309 297 275 247 206 169 168 161 163 160 158 156 157 154 150 149 146 150 151 158 178 191 181 180 170 171
333 343 330 336 343 339 340 342 341 337 332 331 324 318 299 292 293 300 292 283 238 139 144 152 152 149 150 151 155 154 151 153 152 150 153 160 163 189 196 178 174 172 162
330 349 349 346 345 340 336 333 340 338 337 337 334 330 321 330 327 347 17 28 49 76 105 124 137 147 153 157 155 157 155 153 152 144 152 170 183 199 172 168 170 169 172
324 354 357 350 346 340 345 344 344 343 345 345 346 346 345 347 354 18 31 32 60 88 96 117 130 134 141 144 148 154 148 152 146 148 159 179 192 160 184 175 157 169 173
338 346 355 348 353 350 351 350 349 352 346 345 348 351 349 353 4 19 34 33 39 49 70 95 113 109 114 121 125 132 138 143 143 158 172 183 167 164 174 167 161 164 173
13 9 2 3 348 356 352 356 351 355 353 358 357 357 357 1 15 9 23 47 39 51 66 76 97 112 113 119 122 126 134 134 158 169 210 174 181 178 142 142 154 145 140
19 17 3 7 3 359 356 353 350 353 341 349 349 359 1 9 13 10 8 75 48 59 81 72 106 117 119 119 120 108 123 148 190 201 178 175 190 163 137 148 147 145 143